User: anonymous   Login
Location: Newark
(42.7133°N, 87.7910°W)
Time: 19:13:24
(UTC+00:00)
Language:

SR - Orbit

View from above orbital plane
View from above orbital plane
View from above satellite
View from above satellite

Ground track
Ground track

The orbit data is extracted from the following two-line orbital elements,

1    46U 60007B   20220.53094295 -.00000059  00000-0  11408-4 0  9999
2    46  66.6897 268.5127 0202327  93.3051 269.1224 14.49307194146506
Epoch (UTC): 07 August 2020 12:44:33
Eccentricity: 0.0202327
inclination: 66.6897°
perigee height: 584 km
apogee height: 871 km
right ascension of ascending node: 268.5127°
argument of perigee: 93.3051°
revolutions per day: 14.49307194
mean anomaly at epoch: 269.1224°
orbit number at epoch: 14650

The dashed part of the orbit path shows where the satellite is in the earth's shadow,  

DLR